Weather History for Sioux City, IA

Change the Weather History Date:

Tuesday, January 29, 2013

  Actual Average Record
Temperature  
Mean Temperature 32 °F 21 °F  
Max Temperature 37 °F 31 °F 63 °F (1931)
Min Temperature 27 °F 11 °F -22 °F (1966)
Degree Days  
Heating Degree Days 33 44  
Month to date heating degree days 1258 1298  
Since 1 July heating degree days 3941 4090  
Cooling Degree Days 0 0  
Month to date cooling degree days 0 0  
Year to date cooling degree days 0 0  
Moisture  
Dew Point 29 °F    
Average Humidity 87    
Maximum Humidity 100    
Minimum Humidity 63    
Precipitation  
Precipitation 0.00 in 0.02 in 0.99 in (2001)
Month to date precipitation 0.19 0.58  
Year to date precipitation 0.19 0.58  
Snow  
Snow 0.00 in 0.20 in 11.00 in (1891)
Month to date snowfall 1.4 6.2  
Since 1 July snowfall 11.4 19.4  
Snow Depth 0.00 in    
Sea Level Pressure  
Sea Level Pressure 29.68 in    
Wind  
Wind Speed 14 mph (NNW)    
Max Wind Speed 26 mph    
Max Gust Speed 33 mph    
Visibility 8 miles    
Events Fog    
T = Trace of Precipitation, MM = Missing Value Source: NWS Daily Summary

Daily Weather History Graph

Daily Weather History Graph

Search for Another Location

Airport:

Trip Planner

Search our weather history database for the weather conditions in past years. The results will help you decide how hot, cold, wet, or windy it might be!

Date:

Astronomy

Jan. 29, 2013 Rise Set
Actual Time 7:41 AM CST 5:36 PM CST
Civil Twilight 7:11 AM CST 6:06 PM CST
Nautical Twilight 6:38 AM CST 6:39 PM CST
Astronomical Twilight 6:05 AM CST 7:12 PM CST
Moon 8:38 PM CST (1/29) 8:35 AM CST (1/29)
Length of Visible Light 10h 54m
Length of Day
9h 54m
Waning Gibbous, 93% of the Moon is Illuminated
Jan 29
Waning Gibbous
Feb 3
Last Quarter
Feb 10
New
Feb 17
First Quarter
Feb 25
Full

Hourly Weather History & Observations

Time (CST) Temp. Windchill Dew Point Humidity Pressure Visibility Wind Dir Wind Speed Gust Speed Precip Events Conditions
12:09 AM 33.8 °F 24.8 °F 33.8 °F 100% 29.60 in 0.5 mi WNW 12.7 mph - N/A Fog Fog
12:22 AM 33.8 °F 25.8 °F 33.8 °F 100% 29.59 in 1.5 mi WNW 10.4 mph - N/A   Overcast
12:28 AM 33.8 °F 25.3 °F 33.8 °F 100% 29.60 in 3.0 mi WNW 11.5 mph - N/A   Overcast
12:48 AM 33.8 °F 23.5 °F 33.8 °F 100% 29.61 in 2.5 mi WNW 16.1 mph 25.3 mph N/A   Overcast
12:52 AM 34.0 °F 24.6 °F 34.0 °F 100% 29.63 in 2.5 mi NW 13.8 mph - N/A   Overcast
12:59 AM 33.8 °F 23.5 °F 33.8 °F 100% 29.61 in 3.0 mi NW 16.1 mph - N/A   Overcast
1:52 AM 33.1 °F 23.4 °F 33.1 °F 100% 29.64 in 5.0 mi NW 13.8 mph - N/A   Overcast
2:08 AM 33.8 °F 25.8 °F 32.0 °F 93% 29.62 in 2.0 mi NW 10.4 mph - N/A   Overcast
2:20 AM 32.0 °F 22.5 °F 32.0 °F 100% 29.63 in 1.8 mi NW 12.7 mph - N/A   Overcast
2:27 AM 32.0 °F 22.5 °F 32.0 °F 100% 29.63 in 3.0 mi NW 12.7 mph - N/A   Overcast
2:52 AM 32.0 °F 24.2 °F 30.9 °F 96% 29.65 in 5.0 mi NW 9.2 mph - N/A   Overcast
3:52 AM 30.9 °F 22.8 °F 30.9 °F 100% 29.67 in 5.0 mi WNW 9.2 mph - N/A   Overcast
4:52 AM 32.0 °F 23.0 °F 30.9 °F 96% 29.64 in 6.0 mi NW 11.5 mph - N/A   Overcast
5:00 AM 32.0 °F 22.5 °F 30.2 °F 93% 29.61 in 7.0 mi NW 12.7 mph - N/A   Overcast
5:52 AM 32.0 °F 24.8 °F 30.0 °F 92% 29.66 in 9.0 mi NW 8.1 mph - N/A   Overcast
6:52 AM 32.0 °F 22.1 °F 30.0 °F 92% 29.67 in 8.0 mi NNW 13.8 mph 23.0 mph N/A   Overcast
7:52 AM 30.9 °F 20.7 °F 28.9 °F 92% 29.70 in 10.0 mi NW 13.8 mph - N/A   Overcast
8:52 AM 30.9 °F 21.7 °F 28.9 °F 92% 29.73 in 7.0 mi NW 11.5 mph - N/A   Overcast
9:10 AM 30.2 °F 20.8 °F 28.4 °F 93% 29.69 in 7.0 mi NW 11.5 mph - N/A   Overcast
9:52 AM 30.9 °F 21.2 °F 28.9 °F 92% 29.73 in 7.0 mi NNW 12.7 mph - N/A   Overcast
10:02 AM 30.2 °F 20.2 °F 28.4 °F 93% 29.69 in 7.0 mi NNW 12.7 mph - N/A   Overcast
10:52 AM 33.1 °F 23.0 °F 28.9 °F 85% 29.73 in 10.0 mi North 15.0 mph - N/A   Overcast
11:35 AM 33.8 °F 26.4 °F 30.2 °F 87% 29.70 in 10.0 mi North 9.2 mph 19.6 mph N/A   Overcast
11:52 AM 34.0 °F 23.4 °F 28.9 °F 82% 29.72 in 10.0 mi North 17.3 mph - N/A   Overcast
12:52 PM 37.0 °F 27.7 °F 30.0 °F 76% 29.69 in 10.0 mi NNE 16.1 mph 21.9 mph N/A   Mostly Cloudy
1:52 PM 35.1 °F 25.2 °F 30.0 °F 82% 29.70 in 10.0 mi North 16.1 mph - N/A   Overcast
2:52 PM 37.0 °F 27.4 °F 30.0 °F 76% 29.70 in 10.0 mi North 17.3 mph - N/A   Overcast
3:52 PM 37.0 °F 27.4 °F 30.9 °F 79% 29.68 in 10.0 mi North 17.3 mph - N/A   Overcast
4:52 PM 36.0 °F 29.6 °F 30.0 °F 79% 29.69 in 10.0 mi North 8.1 mph - N/A   Overcast
4:54 PM 35.6 °F 29.2 °F 30.2 °F 81% 29.66 in 10.0 mi North 8.1 mph - N/A   Overcast
5:52 PM 35.1 °F 26.4 °F 27.0 °F 72% 29.70 in 10.0 mi North 12.7 mph - N/A   Overcast
6:52 PM 34.0 °F 25.5 °F 27.0 °F 75% 29.73 in 10.0 mi NNW 11.5 mph - N/A   Overcast
7:52 PM 33.1 °F 22.2 °F 27.0 °F 78% 29.74 in 10.0 mi North 17.3 mph - N/A   Overcast
8:52 PM 33.1 °F 21.9 °F 27.0 °F 78% 29.75 in 10.0 mi North 18.4 mph - N/A   Overcast
9:52 PM 30.9 °F 19.8 °F 26.1 °F 82% 29.77 in 10.0 mi North 16.1 mph - N/A   Overcast
10:39 PM 30.2 °F 15.9 °F 24.8 °F 80% 29.70 in 10.0 mi North 26.5 mph - N/A   Overcast
10:52 PM 28.9 °F 16.1 °F 23.0 °F 78% 29.75 in 10.0 mi North 19.6 mph - N/A   Overcast
11:01 PM 28.4 °F 14.4 °F 23.0 °F 80% 29.72 in 10.0 mi North 23.0 mph 27.6 mph N/A   Overcast
11:52 PM 27.0 °F 13.2 °F 21.9 °F 81% 29.79 in 10.0 mi North 20.7 mph 29.9 mph N/A   Overcast